Location: *
(50.5492°N, 7.7469°E)
Time: 12:57:24
(UTC+00:00)

STARLINK-42 - Pass Details

Date: 21 October 2019
Orbit: 548 x 551 km, 53.0° (Epoch: 18 November)

Event Time Altitude Azimuth Distance (km) Brightness Sun altitude
Rises 18:02:15 0° 278° (W) 2,719 9.0 -16.0°
Reaches altitude 10° 18:04:30 10° 282° (WNW) 1,826 7.6 -16.4°
Maximum altitude 18:08:36 61° 3° (N) 628 3.8 -17.0°
Enters shadow 18:10:09 35° 70° (ENE) 901 4.2 -17.3°
